User: anonymous   Login
Location: Kunchanapalle
(16.4623°N, 80.6176°E)
Time: 18:13:01
(UTC+00:00)
Language:

Cosmos-2242 - Orbit

View from above orbital plane
View from above orbital plane
View from above satellite
View from above satellite

Ground track
Ground track

The orbit data is extracted from the following two-line orbital elements,

1 22626U 93024A   20298.19616408  .00000212  00000-0  20296-4 0  9990
2 22626  82.5205 326.5743 0019300  18.3887 341.8023 14.88031461488300
Epoch (UTC): 24 October 2020 04:42:28
Eccentricity: 0.0019300
inclination: 82.5205°
perigee height: 590 km
apogee height: 617 km
right ascension of ascending node: 326.5743°
argument of perigee: 18.3887°
revolutions per day: 14.88031461
mean anomaly at epoch: 341.8023°
orbit number at epoch: 48830

The dashed part of the orbit path shows where the satellite is in the earth's shadow,  

DLR